Theta_e
307 307 307 307 308 308 308 308 308 309 309 309 309 310 310 311 311 312 312 313 312 311 311 311 312 314 313 314 315 313 310 311 312 310 313 311 312 312 313 314 316 317 316 317 319
307 307 307 307 308 308 308 308 308 308 309 309 309 310 310 311 312 312 313 313 313 312 311 311 312 314 314 314 313 309 308 310 308 308 312 312 313 312 313 313 315 316 316 316 319
307 307 308 308 308 308 308 308 308 308 309 309 309 310 310 311 312 314 314 314 314 313 312 312 313 314 314 314 313 308 308 308 311 312 313 312 312 313 312 311 315 316 316 316 317
308 308 308 308 308 308 309 309 309 308 308 309 309 309 310 311 311 313 312 311 313 313 312 313 314 315 313 312 313 312 310 310 312 314 314 312 313 312 312 315 315 315 315 315 316
308 309 309 309 309 309 309 309 309 309 309 309 309 309 310 311 312 313 310 310 311 312 312 313 314 315 311 313 313 312 312 312 313 314 314 314 313 312 313 315 315 315 315 315 315
309 309 309 309 309 309 309 309 309 309 309 309 309 309 309 310 311 316 315 311 311 312 313 315 315 315 313 312 311 313 313 313 314 314 313 313 312 313 315 316 315 315 315 315 315
309 310 310 310 310 309 309 309 309 309 309 309 309 309 309 309 310 315 316 313 311 313 314 314 315 315 314 312 313 313 313 311 312 313 313 313 312 311 314 315 315 315 316 315 315
310 309 308 308 309 309 309 309 309 309 309 309 309 309 309 310 310 312 316 315 312 312 312 312 314 315 314 313 312 311 309 312 310 311 312 313 313 311 313 313 314 314 315 315 315
321 319 315 312 309 308 308 308 308 308 308 309 309 309 309 309 310 311 315 315 314 312 312 313 313 314 313 310 310 308 310 311 311 310 311 311 312 311 313 313 313 314 314 314 314
320 321 320 320 319 315 312 309 308 308 309 309 309 309 310 310 311 311 315 315 314 314 314 314 314 308 306 309 309 310 312 310 311 310 310 311 310 309 313 312 313 315 315 315 315
320 318 321 321 322 322 320 315 311 308 307 308 309 307 310 310 312 312 313 314 314 313 311 311 310 311 310 308 308 307 309 310 308 309 311 310 309 311 311 310 311 313 315 316 316
317 316 317 318 320 321 322 317 310 312 312 310 308 309 309 311 313 314 314 314 313 310 309 309 310 309 308 308 310 309 310 310 308 308 309 310 310 309 309 310 313 314 314 316 316
316 316 316 317 317 319 321 322 317 314 313 315 313 310 308 309 312 314 314 313 310 308 308 309 310 308 309 309 310 309 310 309 311 310 307 308 309 309 308 309 311 313 315 316 316
317 316 316 316 318 317 318 321 321 317 316 316 313 315 312 309 311 312 314 314 310 310 307 309 309 310 310 310 310 310 308 309 311 312 311 308 311 310 309 310 308 312 314 315 316
315 316 317 316 317 317 317 319 321 317 320 315 312 313 311 310 310 312 313 313 309 310 310 311 309 310 310 310 309 310 308 309 310 310 309 310 312 311 309 310 310 311 314 315 315
308 313 315 318 317 317 317 318 317 320 323 315 312 312 310 311 310 311 312 312 311 310 310 309 310 309 310 309 309 307 309 308 306 308 313 309 311 311 309 310 310 310 314 314 313
306 307 308 315 316 317 318 318 318 320 316 314 313 310 311 310 310 310 310 309 310 312 311 310 310 309 310 310 309 310 311 311 310 311 314 308 310 311 309 307 309 310 315 313 314
305 306 306 308 312 316 316 317 317 315 316 312 312 310 312 310 309 309 310 311 310 308 307 310 310 309 308 310 311 309 310 311 308 309 309 308 312 311 308 309 311 311 312 312 312
300 304 305 305 306 309 313 314 316 314 313 315 315 316 313 313 309 309 308 309 310 307 310 309 309 308 307 309 310 309 312 309 311 296 307 309 308 308 307 307 308 311 310 311 313
297 298 299 302 304 306 308 311 313 312 313 314 319 318 319 313 312 309 308 307 309 308 308 310 311 308 308 309 309 309 308 311 308 310 308 311 310 312 313 311 309 308 310 313 314
300 300 301 303 303 306 307 308 311 312 313 316 317 317 314 315 314 309 311 309 307 307 309 308 309 309 308 309 309 310 310 309 309 308 310 310 316 307 310 309 309 309 312 313 315
300 297 302 303 305 304 305 306 311 312 313 314 315 317 317 314 315 312 311 312 310 308 310 309 309 309 309 307 306 307 310 309 312 310 308 310 316 308 310 308 309 310 312 312 314
298 298 300 306 303 302 303 305 307 309 312 314 315 313 315 316 317 314 312 311 311 309 310 311 312 310 313 311 307 308 308 309 308 307 310 312 316 305 307 309 310 311 312 312 314
298 298 298 300 302 302 302 304 306 307 308 311 312 313 315 315 314 316 315 312 311 310 312 314 312 313 317 315 309 309 308 309 312 314 313 313 315 312 310 310 309 312 313 314 313
299 299 298 298 298 298 302 304 304 305 306 308 307 309 311 313 313 315 314 314 313 310 312 315 316 313 313 312 310 309 310 309 311 312 314 315 313 313 311 310 313 314 314 313 314
299 298 298 297 300 297 298 301 303 305 304 306 307 306 308 310 310 308 312 313 314 311 311 312 315 314 317 315 311 314 312 309 310 311 312 312 313 313 313 313 312 314 314 314 314
297 298 298 298 297 299 299 299 300 299 301 305 305 306 307 307 308 309 310 311 311 313 312 310 309 313 318 311 313 315 315 314 314 310 311 312 313 313 312 311 312 313 312 313 314
Wind_Speed
10 10 9 8 7 7 6 5 5 4 4 4 5 4 5 6 6 5 4 4 6 5 6 5 4 3 5 5 3 4 4 3 5 7 4 10 6 6 7 6 11 12 7 5 18
8 8 7 8 7 6 6 5 5 4 5 5 5 5 5 6 6 5 5 6 6 6 6 6 5 5 3 3 2 4 4 8 4 5 3 7 6 10 6 6 9 12 15 9 14
9 8 7 6 6 5 5 5 5 5 6 6 5 5 5 5 4 3 6 7 8 8 7 6 6 5 2 2 1 4 5 5 5 4 3 5 5 10 8 4 14 18 19 17 16
9 9 8 8 7 6 5 5 5 6 6 6 5 5 5 4 4 3 5 6 8 9 9 8 6 4 3 3 2 2 1 5 3 4 3 4 4 5 14 12 7 16 14 18 20
10 10 9 9 8 8 7 6 6 6 6 6 6 5 4 5 4 5 4 4 7 9 10 8 8 5 5 5 3 2 3 3 2 3 4 4 6 9 14 19 19 13 13 18 22
12 12 12 11 10 9 8 8 7 7 7 7 6 6 5 5 5 9 6 4 7 8 9 8 5 5 7 3 2 2 2 1 2 3 4 4 3 4 6 17 19 19 18 18 21
14 14 14 14 13 12 11 10 9 9 8 7 7 7 8 9 5 9 9 7 7 9 8 6 7 3 6 4 4 2 1 5 3 3 3 2 6 10 21 19 14 18 22 21 23
10 10 12 13 14 14 13 12 11 10 10 9 8 7 6 7 10 9 11 10 9 8 7 6 5 6 3 8 5 4 5 1 2 3 2 5 7 7 4 17 26 24 23 24 26
7 7 8 9 10 11 12 13 12 11 10 10 8 6 5 6 12 13 13 10 10 8 7 7 6 4 5 5 4 6 3 3 8 7 1 3 7 6 5 8 18 22 25 27 28
9 10 10 8 6 7 8 9 10 10 10 9 10 4 11 6 9 15 14 12 9 9 6 5 3 4 3 3 5 6 4 4 5 2 1 4 14 11 16 14 20 20 22 25 29
13 8 14 12 8 6 4 4 5 5 12 8 5 4 2 10 7 12 17 15 10 7 5 2 4 6 13 7 3 5 4 4 5 4 4 8 11 16 20 20 28 33 34 35 36
17 12 10 11 9 8 6 3 4 2 5 14 21 15 12 7 6 12 17 13 8 5 6 4 6 11 6 6 4 3 3 5 6 3 6 9 15 14 14 18 31 36 40 46 44
19 16 13 13 11 9 11 9 4 2 3 7 17 18 23 18 8 15 21 11 5 6 8 8 5 4 7 4 6 4 6 5 7 3 4 5 8 8 6 21 31 41 47 47 49
23 23 17 15 10 13 12 11 8 2 1 6 7 10 18 16 6 14 23 9 3 12 8 6 5 6 4 5 8 6 8 5 3 2 4 1 7 7 6 10 8 29 35 42 41
11 6 23 19 10 9 6 13 13 6 3 2 3 3 12 11 14 12 27 12 8 7 7 8 9 6 5 7 7 6 5 6 3 3 4 1 4 4 1 7 15 22 40 42 35
7 11 12 23 22 19 12 7 17 5 11 3 4 4 5 2 2 6 10 5 6 5 2 2 1 5 7 3 5 9 6 5 4 2 5 10 8 4 5 8 6 12 27 24 18
6 9 10 10 12 15 17 17 3 7 1 5 4 5 2 4 2 3 7 7 7 5 9 2 5 3 4 6 3 3 6 2 3 0 9 3 3 7 9 9 9 13 23 16 6
11 9 11 10 15 7 22 5 7 5 6 3 3 3 6 6 3 3 6 6 6 2 3 9 8 11 8 9 8 9 8 6 8 4 5 2 7 7 10 20 31 29 28 25 18
16 15 13 10 11 11 6 3 4 5 4 8 1 3 3 2 4 3 7 5 9 11 9 6 6 1 3 2 9 6 6 4 2 2 2 5 8 7 9 12 14 24 16 16 13
10 12 16 14 10 5 2 4 4 4 3 2 9 6 8 6 6 6 8 4 6 11 3 4 3 1 1 3 2 5 6 3 2 3 5 6 6 8 5 9 12 6 17 18 13
4 3 4 6 13 6 4 6 6 8 7 3 2 3 6 6 9 7 6 3 6 6 20 5 4 2 3 6 10 3 4 2 4 5 5 4 11 8 8 7 8 7 4 4 9
5 1 3 10 4 4 5 5 4 8 10 5 2 3 4 5 9 8 11 7 16 11 10 7 3 5 9 2 2 1 5 7 4 5 4 2 18 3 2 3 4 2 1 3 11
5 4 5 16 5 4 3 2 8 5 6 8 9 8 2 1 5 6 3 5 12 11 11 8 2 1 5 2 2 5 6 7 4 3 9 6 16 4 1 4 4 3 3 4 9
7 2 6 13 10 3 3 3 4 5 10 9 4 8 8 9 10 4 3 4 4 10 9 14 7 8 10 5 6 6 7 14 15 8 13 17 30 11 3 3 6 9 9 10 13
11 6 7 4 7 6 2 3 6 6 9 6 5 15 7 6 8 12 8 5 3 13 6 10 10 11 14 1 2 5 7 14 19 28 14 32 20 27 11 7 22 33 28 26 27
7 6 6 1 4 7 11 15 12 8 4 5 13 9 7 16 16 5 5 8 9 4 1 8 4 8 18 15 9 6 7 11 20 22 19 25 26 19 24 19 20 32 36 34 33
18 12 6 7 4 6 8 6 6 13 17 12 7 8 8 13 16 25 26 21 11 10 9 6 4 2 9 5 8 10 29 21 15 8 17 19 34 26 21 16 28 37 33 39 36
Wind_Direction
193 194 190 200 207 212 211 208 213 220 234 251 262 269 270 274 275 262 246 224 219 215 204 201 192 188 154 157 139 137 71 185 216 156 233 167 180 185 193 182 189 198 207 195 184
204 198 208 200 206 215 223 226 232 234 239 248 259 270 278 281 278 256 230 228 219 220 203 198 193 178 155 127 114 101 119 214 206 192 213 187 187 178 177 187 215 222 219 211 195
202 208 201 220 223 221 230 238 245 250 255 256 259 266 278 285 284 236 224 223 225 215 201 190 188 179 119 127 102 138 181 188 205 219 226 185 200 182 172 223 221 226 225 221 213
212 210 216 208 226 233 228 239 250 260 264 271 276 274 272 252 200 214 214 219 208 200 194 185 182 163 116 141 127 126 176 170 162 184 162 178 176 207 215 224 229 239 241 233 226
217 223 224 228 224 232 244 244 245 258 271 278 282 282 272 232 229 199 186 196 192 189 188 183 180 163 152 147 131 131 190 204 212 203 216 208 220 229 245 240 249 250 234 235 232
227 229 234 233 241 242 240 253 259 258 264 277 280 284 263 237 231 203 193 180 178 177 176 173 188 170 125 125 136 150 190 246 237 218 238 225 226 227 246 237 241 247 248 241 236
231 233 238 240 238 243 248 249 252 264 265 267 277 280 265 252 229 210 204 193 179 171 167 164 151 149 136 117 117 89 337 334 242 220 245 236 295 237 246 249 250 245 246 245 240
225 228 234 238 242 242 243 246 253 256 262 265 269 276 256 241 228 212 208 200 193 187 181 173 161 132 103 124 42 60 52 14 295 166 254 159 261 275 287 250 251 249 246 247 244
225 231 231 234 235 244 248 247 247 252 258 263 269 250 252 230 219 210 204 200 192 187 178 172 167 109 118 88 20 8 214 207 315 201 147 170 266 260 261 256 259 255 252 250 249
220 220 237 239 238 239 246 251 249 251 250 256 252 265 233 211 205 202 193 183 174 170 148 166 116 80 44 105 219 201 199 241 244 212 188 227 261 261 254 268 265 269 264 258 256
226 234 222 221 228 240 249 241 239 245 224 215 195 196 226 208 189 195 196 192 174 162 154 95 99 194 216 187 132 138 178 211 239 238 193 238 252 264 266 261 264 263 261 259 258
223 229 237 226 233 226 239 230 207 217 296 241 240 232 236 207 198 196 183 172 167 159 122 53 213 229 109 158 159 160 172 245 285 238 188 269 261 259 253 249 249 256 260 264 264
218 223 216 236 246 234 223 226 242 270 271 260 232 237 231 226 220 201 184 178 136 134 187 179 195 136 153 156 164 205 184 209 227 319 242 324 280 254 275 252 254 256 259 262 260
226 222 217 222 244 240 234 210 203 162 358 256 218 226 212 206 240 203 192 173 181 190 163 227 202 146 169 191 156 240 203 166 171 79 254 110 286 280 237 252 250 258 258 258 259
238 217 221 227 218 216 211 208 191 157 268 221 164 216 173 184 143 187 184 190 165 173 143 232 170 169 174 200 160 222 131 160 146 191 349 188 266 234 7 270 256 255 257 264 272
250 223 239 204 225 234 236 225 169 159 227 185 121 151 136 171 91 115 168 170 147 128 214 243 302 177 195 125 159 146 86 57 53 83 275 185 187 231 184 213 262 264 272 286 292
254 240 240 222 194 212 197 185 221 204 52 198 169 161 155 150 125 152 163 173 165 147 218 138 207 194 167 87 45 164 116 292 322 34 243 160 228 255 261 218 225 250 272 288 297
260 257 247 236 246 201 180 196 210 187 221 97 102 89 182 157 190 137 129 191 253 117 116 190 255 166 190 187 168 202 167 171 207 210 266 197 237 247 233 256 253 258 262 269 267
262 264 260 244 246 250 248 231 203 195 202 149 96 149 210 230 149 149 199 218 202 180 189 172 260 236 132 126 153 193 205 175 76 80 350 230 287 285 259 279 261 253 260 267 267
272 272 264 249 235 222 123 226 243 222 358 207 198 169 188 195 170 185 177 208 216 188 186 219 293 40 78 125 38 167 168 79 349 192 251 261 263 235 259 245 256 263 254 256 242
248 272 209 214 183 160 212 219 195 216 178 283 241 177 208 183 191 194 210 244 210 199 193 158 144 259 128 210 170 138 207 114 142 160 185 293 267 207 229 244 256 269 279 223 183
178 223 164 175 157 202 210 193 191 187 201 179 308 249 215 207 197 209 220 232 181 146 170 198 157 220 211 223 195 347 212 162 164 223 247 178 264 134 219 335 302 219 100 172 153
196 226 194 176 202 217 239 266 202 196 202 186 198 202 166 178 270 212 223 259 190 166 169 162 186 34 317 32 335 216 200 200 116 84 217 162 258 336 51 42 8 204 250 197 173
172 230 226 210 234 180 170 228 219 219 234 236 229 202 214 232 215 259 230 309 283 222 232 139 169 191 222 203 143 184 199 196 200 213 231 231 251 237 154 70 316 298 287 252 240
197 215 194 207 245 224 255 218 196 211 220 221 257 240 235 254 239 235 236 271 326 354 264 172 215 206 239 311 204 205 182 198 208 228 216 249 241 253 244 261 275 285 286 274 271
206 181 190 250 179 170 208 235 240 246 219 205 234 245 231 243 244 281 206 219 242 149 104 324 287 208 250 234 218 257 240 215 217 233 240 257 265 252 257 263 268 262 264 268 272
223 240 166 193 173 177 215 190 213 228 251 245 283 309 265 257 279 265 259 261 256 233 231 205 196 251 253 189 195 232 235 217 221 204 214 237 246 260 263 247 254 259 259 265 267